Theta_e
314 319 319 320 319 313 318 319 317 318 318 317 317 317 317 316 317 317 327 329 331 334 336 333 334 336 338 339 339 339 338 334 332 332 330 329 328 329 332 337 339 338 338 338 335 332 327 327 326
316 319 320 313 316 316 315 316 319 318 317 316 317 317 317 318 318 323 326 330 329 333 335 332 334 336 338 338 338 338 337 336 335 332 332 333 333 331 332 336 337 337 338 338 334 328 325 324 323
319 320 314 313 312 315 316 316 317 317 316 317 317 316 316 318 319 322 327 328 329 334 335 333 333 335 337 338 336 335 335 335 336 335 335 337 335 333 334 336 337 336 335 333 331 324 323 322 321
318 316 311 314 318 315 315 314 315 317 316 316 315 317 314 316 319 324 326 327 328 334 335 334 333 334 335 336 338 337 336 335 336 337 337 336 336 333 333 335 335 333 333 332 329 324 321 319 316
317 309 313 316 317 315 316 316 317 318 316 316 315 316 314 318 322 322 323 326 329 334 334 334 333 334 335 336 339 339 338 337 336 336 335 335 336 333 332 332 332 331 330 330 328 324 320 314 306
314 308 313 316 316 314 316 316 316 314 312 313 315 314 313 317 319 320 324 325 329 330 335 336 334 334 337 338 339 339 338 336 336 337 336 335 335 333 329 329 330 330 329 327 326 322 316 306 300
315 312 314 316 315 315 317 315 315 314 313 315 314 315 313 315 317 319 322 324 327 329 333 338 338 335 337 338 338 338 337 333 335 336 335 334 336 333 331 326 328 328 327 326 325 319 310 301 299
311 310 316 314 314 316 315 314 314 314 314 313 313 312 314 315 317 318 322 325 327 328 329 332 337 338 338 338 339 339 337 336 333 332 334 335 337 334 331 329 323 326 327 325 323 315 303 300 299
311 311 313 316 315 314 313 313 312 311 313 311 313 312 312 315 317 317 319 321 325 328 329 330 331 336 339 339 339 337 336 335 335 335 333 336 338 334 331 330 326 321 325 323 322 314 302 300 299
311 310 313 314 315 316 315 314 313 312 309 310 310 310 312 315 316 316 316 317 320 323 326 329 330 331 333 337 338 336 336 336 335 335 334 334 336 333 331 330 328 323 322 320 320 314 305 301 299
315 313 314 315 315 314 315 313 313 313 313 311 310 310 310 312 314 314 313 314 316 318 321 325 327 329 330 332 332 338 335 336 336 335 334 334 333 332 330 329 328 324 321 319 318 314 304 300 299
317 315 315 316 315 314 315 314 313 313 313 311 309 308 308 307 306 306 306 307 309 312 316 321 325 326 328 330 331 331 337 336 336 336 333 332 331 331 330 328 328 326 320 318 317 312 306 301 301
315 315 315 314 312 312 312 312 312 312 310 308 307 306 304 303 305 305 305 306 307 309 310 312 319 327 327 330 331 332 332 332 330 332 334 332 329 330 329 328 326 327 320 317 315 313 309 301 301
313 313 312 311 311 311 312 311 312 311 310 308 307 304 303 303 302 302 302 302 304 306 308 311 313 321 328 328 330 332 333 333 333 332 333 331 329 329 328 327 326 326 321 316 315 313 309 302 300
313 312 310 310 311 311 310 313 312 310 308 307 305 302 302 301 301 300 300 300 301 304 306 309 313 316 324 329 328 331 333 333 333 333 333 332 330 330 329 327 326 324 323 318 315 314 311 306 300
313 311 312 312 312 312 311 312 311 309 309 307 302 301 301 301 300 299 299 299 301 303 305 308 312 315 320 325 329 330 332 332 331 331 331 331 329 329 329 328 326 324 323 319 315 314 312 307 301
310 310 311 312 312 312 311 311 310 309 310 304 302 302 301 300 299 299 298 298 299 301 303 306 310 314 318 323 325 327 328 329 329 329 329 328 327 327 328 328 327 325 322 318 315 314 312 308 303
311 312 312 313 313 312 312 310 309 309 308 305 302 301 300 300 299 298 297 297 298 299 301 304 307 310 313 316 320 321 323 325 325 326 326 326 326 326 328 329 329 324 320 317 315 314 312 309 307
311 311 312 311 311 312 311 311 310 309 309 304 303 302 301 300 298 297 297 297 297 298 299 300 303 305 310 312 312 314 314 315 319 320 321 322 323 324 325 325 324 321 317 317 315 313 310 307 304
310 312 312 311 310 312 311 311 310 309 307 305 304 302 301 299 297 296 295 295 295 296 296 297 299 301 303 305 307 308 307 306 306 307 311 314 316 318 321 321 321 319 317 314 313 312 308 305 301
312 312 312 313 311 310 312 311 312 306 305 305 303 301 300 298 296 295 294 293 294 295 295 295 296 297 298 301 304 305 304 305 305 304 306 303 306 310 313 316 316 312 312 312 311 310 307 304 301
315 311 312 312 311 313 311 312 311 309 306 304 302 299 298 296 295 295 294 293 292 293 294 295 294 296 296 297 297 296 295 294 295 296 298 300 302 303 304 306 308 308 308 307 308 308 305 302 301
314 310 311 311 310 311 310 310 309 307 308 305 301 299 297 296 295 294 293 292 291 291 292 292 292 292 293 294 295 295 294 293 294 294 295 296 297 298 299 300 302 302 302 303 303 303 304 302 299
309 310 309 308 309 312 311 311 312 309 309 304 301 299 297 296 294 294 293 292 291 290 290 290 289 288 289 289 289 289 288 287 288 287 287 288 291 293 294 295 295 297 299 299 299 301 300 300 300
308 311 315 314 312 315 312 312 312 306 306 304 301 298 296 295 294 293 292 291 290 288 288 288 288 287 287 286 286 286 286 285 285 285 285 285 285 285 285 287 291 293 293 294 296 297 299 299 298
309 312 314 314 314 313 310 313 311 302 301 300 299 297 296 295 295 293 292 292 290 289 287 287 287 287 287 286 286 285 285 284 284 284 284 284 284 284 284 285 285 285 287 291 292 293 295 296 297
312 314 312 313 299 309 312 310 305 302 300 298 297 297 295 295 294 293 292 292 291 290 288 287 287 286 286 286 285 285 285 285 284 284 284 284 284 284 284 284 285 285 285 285 285 288 291 292 293
311 311 315 311 311 311 311 312 312 304 301 299 298 297 295 293 292 292 291 290 290 289 288 287 287 286 286 286 285 285 285 285 285 285 285 284 284 284 284 284 284 284 284 285 285 284 284 285 288
311 311 312 312 309 309 307 309 306 305 302 300 298 297 294 293 292 290 290 290 289 288 288 287 287 286 286 286 285 285 285 285 285 284 284 283 283 283 283 283 283 283 283 283 283 284 284 284 284
309 310 310 310 309 308 310 311 305 304 300 299 297 296 294 293 290 290 289 289 289 288 288 287 287 287 286 286 286 285 285 285 284 283 283 282 282 282 282 282 282 282 282 282 282 282 282 282 283
Wind_Speed
9 8 6 4 4 5 1 2 0 1 2 2 1 2 1 1 2 3 3 13 5 17 25 29 27 25 22 20 18 16 13 11 10 9 10 9 8 8 8 9 9 7 7 6 5 3 4 5 6
9 6 3 2 5 4 4 4 1 2 3 2 1 1 2 0 2 1 6 15 7 16 22 29 27 26 24 22 20 17 15 13 12 10 9 8 7 8 9 10 8 6 5 4 2 1 3 4 5
7 4 3 4 4 4 4 3 2 1 1 1 1 0 2 2 1 8 4 16 12 21 23 28 29 26 24 22 20 19 17 15 14 12 11 9 8 8 8 11 10 7 4 3 3 2 2 2 2
6 6 4 4 2 3 5 4 4 2 2 2 3 1 3 0 3 6 10 12 13 21 22 25 29 28 26 23 20 18 17 16 14 13 13 13 10 10 10 9 4 5 5 4 4 4 3 3 3
4 3 4 3 3 2 1 3 1 2 1 3 3 2 3 3 5 7 10 12 14 19 19 21 27 28 27 25 22 20 18 16 15 14 13 12 12 11 10 10 9 7 5 5 6 6 5 4 2
4 3 5 1 4 4 3 2 3 2 2 4 3 4 4 2 4 5 8 9 12 15 18 18 23 26 25 25 24 22 21 19 18 18 15 13 15 16 10 10 9 9 7 6 6 6 6 4 3
5 4 3 3 2 1 3 1 3 2 1 1 2 2 3 5 7 7 6 7 12 14 16 17 19 23 25 25 25 24 22 22 22 21 19 16 19 17 13 8 10 9 8 7 7 6 5 4 5
5 4 1 2 3 3 5 6 0 2 3 3 4 2 4 3 8 8 7 8 10 15 18 18 20 22 25 26 25 23 23 22 22 21 20 19 21 19 16 13 10 12 11 10 10 8 7 7 7
3 4 1 2 2 3 4 5 4 3 2 3 4 3 4 5 9 8 8 11 13 16 20 21 21 23 26 26 27 25 24 23 21 20 20 20 23 21 19 16 12 12 14 12 12 9 9 9 9
4 3 5 2 1 2 4 1 3 5 8 4 4 6 4 3 9 12 13 16 17 20 21 24 24 24 24 26 28 28 27 26 26 24 22 22 23 23 22 19 15 15 15 15 13 12 12 11 11
3 4 3 4 3 1 3 5 2 2 6 8 9 7 6 4 11 14 19 20 22 21 21 24 26 25 26 27 28 32 29 28 27 26 25 24 24 24 23 20 16 16 17 17 16 15 14 13 12
2 6 5 4 1 2 2 4 8 4 9 6 8 7 6 9 8 12 13 14 11 13 19 24 27 27 27 26 27 28 34 33 32 31 26 25 26 26 25 22 20 19 19 20 20 18 16 16 15
4 3 3 6 9 4 3 7 5 10 12 8 7 10 10 10 16 16 16 18 18 16 11 10 23 30 28 26 25 25 27 30 29 29 28 28 27 28 27 24 23 21 22 22 22 20 18 17 15
1 3 6 7 9 5 5 2 4 8 1 10 8 10 9 12 16 19 27 24 23 20 20 12 7 23 31 28 26 26 26 24 23 25 29 30 29 28 28 28 26 23 23 23 23 22 21 19 17
1 5 7 6 3 5 6 2 6 11 6 6 8 9 10 13 19 18 19 21 21 20 19 20 8 8 24 29 26 26 24 23 24 24 25 29 30 30 30 28 27 26 24 23 23 22 21 20 19
1 2 3 4 2 2 3 7 6 9 5 8 9 7 8 10 14 18 20 20 20 19 20 20 17 6 6 18 23 22 21 20 19 20 21 22 24 27 30 32 30 29 28 25 24 24 23 22 21
3 3 4 8 2 2 2 6 8 10 4 7 7 7 8 9 17 22 23 23 23 22 22 23 22 17 12 3 9 11 12 13 13 14 16 19 22 24 25 30 31 28 28 27 26 26 25 24 23
5 4 4 5 3 1 5 10 9 12 4 8 7 7 8 10 10 16 23 26 27 27 26 26 27 24 18 16 10 9 3 2 6 8 11 13 16 17 21 25 27 27 27 26 26 27 27 27 24
4 4 5 4 8 3 7 4 11 9 2 8 7 8 9 10 11 17 23 28 30 33 33 32 31 29 25 21 16 16 19 16 11 7 4 4 7 10 14 18 21 24 25 26 27 28 28 26 21
5 4 6 6 6 1 7 8 11 6 4 5 10 8 8 7 8 16 21 28 32 33 35 34 32 29 27 24 20 14 12 18 20 19 17 13 10 6 12 14 17 21 23 25 27 29 27 26 23
5 6 5 8 4 2 2 7 6 4 9 12 10 9 8 7 7 7 17 24 30 33 34 36 35 33 29 25 19 17 15 18 19 21 17 19 14 11 9 11 14 16 20 24 26 28 30 27 25
5 6 6 5 3 4 1 5 6 4 6 7 7 7 6 7 6 9 13 21 27 27 30 32 33 34 33 29 29 29 27 23 21 20 19 17 16 15 14 10 10 13 14 17 22 26 30 30 26
8 3 3 0 2 1 3 2 6 7 4 5 6 7 6 5 6 7 14 19 21 24 27 28 30 31 30 31 31 30 30 26 26 26 24 21 19 19 18 16 14 12 12 14 18 22 27 30 32
3 3 5 4 3 2 6 7 4 3 3 7 6 7 6 5 6 11 14 17 19 20 25 26 27 29 29 29 28 29 28 28 29 30 31 31 29 27 24 22 19 17 15 16 16 16 21 27 30
4 5 3 3 1 6 3 3 6 5 3 13 15 9 7 6 6 6 10 13 17 20 22 24 25 27 27 28 28 27 27 27 28 28 28 29 31 31 30 28 26 23 19 18 18 18 17 19 26
6 8 5 7 4 5 4 5 3 4 6 12 10 9 8 7 5 5 8 11 14 16 18 20 21 22 23 24 24 23 24 24 24 25 25 25 25 26 26 26 25 24 24 22 20 19 19 18 19
4 3 1 4 2 3 4 1 2 3 5 6 8 7 7 7 6 6 8 9 11 12 13 16 16 17 17 17 16 18 19 20 22 23 24 24 23 24 24 25 26 26 24 24 23 21 21 21 22
4 6 2 2 1 5 4 5 5 8 9 7 8 8 8 8 7 6 11 11 10 10 10 11 11 12 12 12 14 15 17 19 20 21 23 24 25 26 27 26 27 27 26 25 26 26 25 23 22
2 3 2 3 5 5 2 6 3 8 12 14 10 9 9 9 8 6 12 12 12 11 9 8 8 8 8 8 10 12 14 18 19 20 21 22 22 23 26 27 28 30 32 30 28 27 28 30 31
1 6 6 4 5 3 3 8 1 7 11 8 9 9 8 5 7 9 15 16 14 12 10 8 6 4 4 5 7 9 11 16 21 23 22 22 25 25 27 30 31 32 34 34 34 36 35 32 31
Wind_Direction
329 331 327 34 56 66 330 276 83 37 17 241 234 114 168 220 156 210 152 167 189 185 188 189 187 186 186 184 181 178 176 174 172 169 165 162 158 151 147 149 157 142 132 126 113 116 104 113 113
347 356 33 78 84 73 286 278 105 220 215 168 27 67 59 73 218 184 145 191 197 187 187 192 192 191 190 189 187 188 187 184 182 182 181 174 163 156 159 165 178 167 142 133 145 144 132 128 130
346 355 75 86 109 155 181 236 204 283 285 147 63 9 160 217 1 172 194 186 190 192 190 195 196 196 197 197 195 195 195 194 190 189 182 175 180 164 171 177 181 179 185 194 219 214 175 161 159
357 14 31 81 166 227 169 221 229 141 327 344 136 4 305 316 188 189 164 184 195 191 194 199 199 200 201 202 202 202 199 198 194 189 186 192 194 182 185 187 192 226 223 208 217 239 230 239 226
41 56 49 52 288 233 212 193 88 49 294 344 346 318 286 354 123 151 166 184 188 188 197 201 204 204 204 204 203 204 203 200 204 203 210 202 203 188 194 199 208 209 212 221 226 235 252 249 226
37 91 55 25 297 317 316 285 87 51 34 331 357 331 282 270 174 167 173 186 200 199 197 203 207 209 208 207 207 208 206 201 202 206 214 219 213 209 217 193 209 213 222 211 208 231 247 254 181
105 79 182 218 256 238 250 309 109 159 29 293 196 300 289 262 228 198 183 181 193 207 208 208 208 213 215 215 214 213 212 209 204 208 215 218 212 216 230 226 201 209 216 207 217 231 243 210 173
103 93 21 288 321 322 334 348 350 13 305 327 157 233 303 266 206 199 201 208 204 210 214 219 218 213 214 217 217 219 217 220 215 215 219 220 216 221 228 231 218 200 206 207 219 227 223 187 177
86 60 216 238 53 298 344 18 329 311 349 339 303 192 264 330 188 205 210 217 216 219 220 219 223 221 219 220 218 221 224 227 228 230 225 222 218 221 225 237 239 225 208 202 217 221 208 190 183
82 109 225 216 151 303 301 42 304 355 325 299 280 300 283 322 205 221 237 236 226 224 225 221 222 225 225 225 224 220 223 223 225 227 230 227 225 227 228 237 243 236 218 210 213 210 209 191 193
154 192 226 214 200 217 268 306 276 80 306 254 277 287 305 255 246 254 267 262 252 241 233 227 227 228 228 225 226 223 222 226 226 227 229 233 229 229 233 237 239 229 222 217 219 214 210 201 199
151 246 223 274 312 35 275 324 313 207 241 261 287 276 298 319 4 22 346 347 334 291 273 251 234 230 229 232 231 228 223 225 229 232 229 230 230 230 233 237 244 243 233 227 225 222 214 206 208
190 262 281 283 289 241 223 253 239 273 268 290 298 45 35 41 35 30 31 34 28 21 352 289 245 238 235 232 233 231 229 232 234 230 225 226 234 235 238 244 244 247 236 232 231 231 226 217 216
151 259 267 274 268 261 229 306 142 273 237 309 20 74 49 44 26 22 20 17 21 20 18 0 269 238 236 235 236 235 233 237 237 233 229 228 231 236 240 245 247 245 241 239 239 236 231 227 227
256 319 323 273 253 220 157 258 218 250 321 324 66 93 64 45 37 30 23 17 13 15 20 21 355 255 237 238 236 235 237 235 234 236 235 236 235 237 238 243 247 247 244 240 240 238 238 237 233
337 45 342 288 207 91 116 264 268 285 303 52 84 81 73 54 45 36 33 34 28 25 28 33 37 35 251 243 241 236 234 237 240 239 238 243 250 250 249 249 248 248 238 240 238 238 236 236 237
348 216 205 308 277 136 124 253 271 296 265 77 108 84 68 49 33 27 36 39 41 43 42 43 45 51 49 271 247 244 240 241 242 245 247 261 258 254 252 250 246 241 239 237 238 235 234 237 238
209 215 234 224 272 130 222 249 268 277 25 137 117 95 75 62 41 33 38 47 50 50 51 53 51 53 64 66 77 72 83 259 256 245 256 261 264 263 253 250 245 236 234 237 236 236 236 236 238
185 189 226 269 263 211 257 264 277 260 91 130 118 92 78 63 48 42 46 51 55 58 55 50 50 50 53 56 51 46 53 50 49 36 2 334 304 276 256 246 242 240 239 242 238 231 231 235 236
252 255 252 268 260 241 282 279 272 359 38 132 124 104 93 72 44 39 38 46 50 54 55 56 53 50 52 55 56 64 67 53 49 48 50 42 27 336 265 256 260 255 250 245 236 230 229 235 229
216 198 221 231 317 266 329 300 287 50 80 81 73 88 87 91 79 45 41 45 53 54 55 55 56 54 55 57 64 70 63 46 37 30 26 24 23 23 358 299 281 264 250 249 251 243 238 238 227
264 207 207 221 125 228 102 273 292 159 113 80 79 71 74 76 57 52 48 51 54 54 61 63 59 58 56 56 59 59 56 47 37 31 29 27 25 23 17 9 355 325 293 271 265 259 250 247 242
230 162 166 201 188 50 279 322 256 117 159 134 118 112 98 87 82 63 58 64 64 62 63 63 62 61 60 60 60 62 60 53 46 39 33 29 26 24 19 7 358 351 344 322 290 271 265 259 252
142 83 49 49 89 302 229 179 272 195 223 140 123 117 119 110 92 83 75 68 61 64 65 65 65 63 63 61 60 61 59 55 49 44 39 33 31 28 20 8 360 352 337 333 325 307 285 275 270
105 80 312 329 358 231 173 132 242 306 288 156 147 139 131 127 105 91 78 72 66 61 63 65 63 62 60 61 60 56 56 55 53 48 40 32 27 24 21 19 15 6 350 335 326 317 305 296 282
183 161 171 222 207 241 331 243 289 9 61 109 127 139 146 142 135 122 114 95 82 75 70 69 67 65 59 58 56 51 48 46 44 39 35 31 24 18 12 9 11 12 10 3 347 328 318 305 296
200 180 203 100 33 31 218 74 102 103 91 123 146 150 158 155 154 156 126 110 102 89 79 73 70 67 63 59 56 50 42 34 29 24 20 17 10 6 5 360 355 357 359 359 357 351 338 321 310
141 163 81 13 193 248 279 260 201 197 184 188 181 180 182 178 177 167 153 138 126 115 105 94 85 77 69 61 50 42 33 25 18 11 8 3 359 354 351 351 348 345 345 344 343 340 339 332 324
135 204 194 162 158 186 234 256 229 175 182 196 200 197 192 195 186 168 162 153 148 145 142 128 110 93 77 59 47 36 26 16 9 4 360 354 351 346 341 338 339 336 334 335 334 329 326 325 321
227 194 172 170 244 232 182 256 30 164 187 185 202 203 204 186 176 172 169 169 170 166 160 155 147 113 65 39 18 6 360 359 360 356 351 346 339 337 332 330 329 326 323 323 324 322 319 315 312